User: anonymous   Login
Location: Vancouver
(49.2500°N, 123.1330°W)
Time: 20:31:14
(UTC-08:00)
Language:

Cosmos 1864 Rocket - Orbit

View from above orbital plane
View from above orbital plane
View from above satellite
View from above satellite

Ground track
Ground track

The orbit data is extracted from the following two-line orbital elements,

1 18161U 87057B   17022.86558041 -.00000039  00000-0 -55092-4 0  9992
2 18161  82.9342 180.0816 0031109   2.5155 162.5234 13.76959221464229
Epoch (UTC): 22 January 2017 20:46:26
Eccentricity: 0.0031109
inclination: 82.9342°
perigee height: 952 km
apogee height: 997 km
right ascension of ascending node: 180.0816°
argument of perigee: 2.5155°
revolutions per day: 13.76959221
mean anomaly at epoch: 162.5234°
orbit number at epoch: 46422

The dashed part of the orbit path shows where the satellite is in the earth's shadow,  

DLR